Weather History for KGNA - February, 2014

Change the Weather History Date:

Monday, February 3, 2014

  Actual Average (KCKC) Record (KCKC)
Temperature  
Mean Temperature 11 °F -  
Max Temperature 21 °F 20 °F 37 °F (1999)
Min Temperature 1 °F 4 °F -23 °F (2007)
Degree Days  
Heating Degree Days 54    
Moisture  
Dew Point 2 °F    
Average Humidity 69    
Maximum Humidity 80    
Minimum Humidity 50    
Precipitation  
Precipitation 0.00 in - - ()
Sea Level Pressure  
Sea Level Pressure 30.24 in    
Wind  
Wind Speed 6 mph (WNW)    
Max Wind Speed 9 mph    
Max Gust Speed 17 mph    
Averages and records for this station are not official NWS values.
T = Trace of Precipitation, MM = Missing Value Source: NWS Daily Summary

Daily Weather History Graph

Daily Weather History Graph

Search for Another Location

Airport or City:

Trip Planner

Search our weather history database for the weather conditions in past years. The results will help you decide how hot, cold, wet, or windy it might be!

Date:

Astronomy

Feb. 03, 2014 Rise Set
Actual Time 7:25 AM CST 5:05 PM CST
Civil Twilight 6:52 AM CST 5:38 PM CST
Nautical Twilight 6:15 AM CST 6:15 PM CST
Astronomical Twilight 5:39 AM CST 6:51 PM CST
Moon 9:05 AM CST (2/3) 10:20 PM CST (2/3)
Length of Visible Light 10h 45m
Length of Day
9h 39m
Waxing Crescent, 20% of the Moon is Illuminated
Feb 3
Waxing Crescent
Feb 6
First Quarter
Feb 14
Full
Feb 22
Last Quarter
Mar 1
New

Hourly Weather History & Observations

Time (CST) Temp. Windchill Dew Point Humidity Pressure Visibility Wind Dir Wind Speed Gust Speed Precip Events Conditions
12:56 AM 12.0 °F 2.7 °F 1.0 °F 61% 30.19 in - West 5.8 mph - N/A   Unknown
1:56 AM 8.1 °F -0.5 °F 1.0 °F 73% 30.20 in - West 4.6 mph - N/A   Unknown
2:56 AM 10.9 °F -0.8 °F 3.9 °F 73% 30.21 in - West 8.1 mph - N/A   Unknown
3:56 AM 5.0 °F -5.6 °F -2.0 °F 73% 30.22 in - NW 5.8 mph - N/A   Unknown
4:56 AM 1.9 °F -5.6 °F -4.0 °F 76% 30.22 in - WNW 3.5 mph - N/A   Unknown
5:56 AM 3.0 °F -6.4 °F -2.9 °F 76% 30.21 in - WNW 4.6 mph - N/A   Unknown
6:56 AM 1.9 °F -5.6 °F -4.0 °F 76% 30.22 in - WNW 3.5 mph - N/A   Unknown
7:56 AM 5.0 °F -4.1 °F -0.9 °F 76% 30.22 in - WNW 4.6 mph - N/A   Unknown
8:56 AM 10.9 °F - 1.9 °F 67% 30.22 in - Calm Calm - N/A   Unknown
9:56 AM 15.1 °F 6.4 °F 7.0 °F 70% 30.22 in - WSW 5.8 mph - N/A   Unknown
10:56 AM 16.0 °F 4.4 °F 8.1 °F 71% 30.21 in - SSW 9.2 mph - N/A   Unknown
11:56 AM 18.0 °F 8.7 °F 10.0 °F 71% 30.19 in - WSW 6.9 mph - N/A   Unknown
12:56 PM 19.0 °F 9.0 °F 10.9 °F 71% 30.18 in - WSW 8.1 mph - N/A   Unknown
1:56 PM 21.0 °F 10.6 °F 10.9 °F 65% 30.18 in - SW 9.2 mph - N/A   Unknown
2:56 PM 21.9 °F 11.7 °F 8.1 °F 55% 30.19 in - SW 9.2 mph 17.3 mph N/A   Unknown
3:56 PM 19.0 °F 10.0 °F 3.0 °F 50% 30.23 in - NW 6.9 mph - N/A   Unknown
4:56 PM 16.0 °F 6.3 °F 3.0 °F 57% 30.26 in - NNW 6.9 mph - N/A   Unknown
5:56 PM 12.0 °F 2.7 °F 1.0 °F 61% 30.29 in - NNW 5.8 mph - N/A   Unknown
6:56 PM 3.9 °F -5.3 °F -2.9 °F 73% 30.32 in - NNW 4.6 mph - N/A   Unknown
7:56 PM 1.9 °F -5.6 °F -4.0 °F 76% 30.33 in - NW 3.5 mph - N/A   Unknown
8:56 PM 3.0 °F -8.0 °F -2.0 °F 80% 30.33 in - NW 5.8 mph - N/A   Unknown
9:56 PM 5.0 °F -5.6 °F -0.9 °F 76% 30.34 in - NNW 5.8 mph - N/A   Unknown
10:56 PM 8.1 °F -2.0 °F -0.0 °F 70% 30.34 in - NNW 5.8 mph - N/A   Unknown
11:56 PM 9.0 °F 0.6 °F 1.0 °F 70% 30.35 in - NW 4.6 mph - N/A   Unknown